FW6785 Weather Reports


time (UTC)temp
C
wind
direction
speed
KPH
gust
KPH
rain 1hr
cm
rain 24hr
cm
rain mn
cm
humidity
%
barometer
mb
20260505140605 16 118 0.0 1.6 0.00 0.97 0.97 99 4155.1
20260505125018 16 84 0.0 0.0 0.00 0.97 0.97 99 4154.7
20260505124515 16 92 0.0 0.0 0.00 0.97 0.97 99 4154.7
20260505124011 15 119 0.0 0.0 0.00 0.97 0.97 99 4154.5
20260505123508 15 119 0.0 0.0 0.00 0.97 0.97 99 4154.5
20260505123004 15 77 0.0 0.0 0.00 0.97 0.97 99 4154.3
20260505122502 15 28 0.0 0.0 0.00 0.97 0.97 99 4154.4
20260505121958 15 12 0.0 0.0 0.00 0.97 0.97 99 4154.6
20260505121455 15 7 1.6 1.6 0.00 0.97 0.97 99 4154.4
20260505120951 15 346 3.2 3.2 0.00 0.97 0.97 99 4154.4
20260505120448 15 334 1.6 1.6 0.00 0.97 0.97 99 4154.4
20260505115947 15 20 1.6 1.6 0.00 0.97 0.97 99 4154.0
20260505115443 15 2 3.2 3.2 0.00 0.97 0.97 99 4154.4
20260505114941 15 1 3.2 3.2 0.00 0.97 0.97 99 4154.5
20260505114437 15 325 4.8 4.8 0.00 0.97 0.97 99 4154.3
20260505113934 15 341 4.8 4.8 0.00 0.97 0.97 99 4153.9
20260505113430 15 359 4.8 4.8 0.00 0.97 0.97 99 4153.8
20260505112926 15 336 1.6 1.6 0.00 0.97 0.97 99 4153.4
20260505112424 15 355 0.0 0.0 0.00 0.97 0.97 99 4153.1
20260505111920 15 336 3.2 3.2 0.00 0.97 0.97 99 4153.4
20260505111415 15 307 1.6 1.6 0.00 0.97 0.97 99 4153.0
20260505110911 16 39 0.0 0.0 0.00 0.97 0.97 99 4152.8
20260505110408 16 75 0.0 0.0 0.00 0.97 0.97 99 4152.9
20260505101839 16 192 1.6 1.6 0.18 0.97 0.97 99 4153.9
20260505101334 16 166 0.0 0.0 0.00 0.94 0.94 99 4154.0
20260505100830 16 20 0.0 0.0 0.00 0.94 0.94 99 4153.6
20260505100327 16 174 1.6 1.6 0.00 0.94 0.94 99 4153.7
20260505095822 16 156 1.6 3.2 0.00 0.94 0.94 99 4153.3
20260505095320 16 197 0.0 0.0 0.00 0.94 0.94 99 4153.9
20260505094816 16 158 1.6 1.6 0.00 0.94 0.94 99 4153.4
20260505094313 16 152 3.2 3.2 0.13 0.94 0.94 99 4154.1
20260505093808 16 313 1.6 1.6 0.30 0.94 0.94 99 4154.2
20260505093307 16 201 1.6 3.2 0.18 0.91 0.91 99 4154.3
20260505092803 16 126 1.6 1.6 0.13 0.89 0.89 99 4153.8
20260505092304 16 160 0.0 1.6 0.13 0.89 0.89 99 4154.9
20260505091758 16 181 0.0 0.0 0.18 0.86 0.86 99 4155.0
20260505091256 16 235 0.0 1.6 0.79 0.86 0.86 99 4154.6
20260505090754 16 158 0.0 0.0 0.71 0.84 0.84 99 4154.3
20260505090252 16 112 1.6 1.6 0.48 0.76 0.76 98 4154.7
20260505085749 16 159 1.6 1.6 0.48 0.71 0.71 98 4154.9
20260505085247 16 163 1.6 1.6 0.79 0.69 0.69 98 4154.9
20260505084744 16 289 3.2 3.2 0.79 0.64 0.64 98 4154.4
20260505084244 16 283 0.0 0.0 0.61 0.58 0.58 97 4154.6
20260505083740 16 304 0.0 1.6 0.61 0.51 0.51 97 4154.6
20260505083236 16 317 1.6 1.6 0.89 0.46 0.46 97 4154.3
20260505082732 16 325 1.6 1.6 1.07 0.41 0.41 96 4154.4
20260505082230 16 333 4.8 4.8 0.89 0.33 0.33 96 4154.4
20260505081726 16 342 1.6 3.2 0.61 0.23 0.23 95 4154.6
20260505081223 16 298 3.2 3.2 0.61 0.18 0.18 95 4154.7
20260505080720 16 167 0.0 0.0 0.43 0.13 0.13 94 4154.5
20260505080216 16 328 1.6 1.6 0.30 0.08 0.08 92 4154.1
20260505075712 16 308 0.0 1.6 0.36 0.05 0.05 91 4154.5
20260505075209 17 311 1.6 1.6 0.18 0.03 0.03 88 4154.6
20260505074706 17 293 1.6 1.6 0.00 0.00 0.00 87 4154.4
20260505074203 17 231 0.0 0.0 0.00 0.00 0.00 85 4154.0
20260505073701 17 200 0.0 1.6 0.00 0.00 0.00 83 4154.1
20260505073158 17 196 0.0 1.6 0.00 0.00 0.00 81 4154.0
20260505072654 17 204 1.6 1.6 0.00 0.00 0.00 81 4154.3
20260505072151 17 200 0.0 0.0 0.00 0.00 0.00 80 4153.8
20260505071646 17 200 0.0 0.0 0.00 0.00 0.00 80 4154.1
20260505071144 17 203 0.0 1.6 0.00 0.00 0.00 80 4154.1
20260505070641 17 212 0.0 0.0 0.00 0.00 0.00 80 4154.0
20260505070137 17 125 0.0 0.0 0.00 0.00 0.00 80 4154.1
20260505065633 17 132 0.0 0.0 0.00 0.00 0.00 80 4154.0
20260505065130 17 132 0.0 0.0 0.00 0.00 0.00 80 4154.0
20260505064627 17 132 0.0 0.0 0.00 0.00 0.00 80 4154.1
20260505064125 17 134 0.0 1.6 0.00 0.00 0.00 80 4154.3
20260505063623 17 137 0.0 0.0 0.00 0.00 0.00 80 4154.4
20260505063118 17 137 0.0 0.0 0.00 0.00 0.00 80 4154.4
20260505062615 17 137 0.0 0.0 0.00 0.00 0.00 79 4154.5
20260505062113 17 136 0.0 0.0 0.00 0.00 0.00 79 4154.6
20260505061610 18 137 0.0 0.0 0.00 0.00 0.00 78 4154.9
20260505061108 18 136 0.0 0.0 0.00 0.00 0.00 78 4154.9
20260505060605 18 136 0.0 0.0 0.00 0.00 0.00 78 4154.8
20260505055557 17 137 0.0 0.0 0.00 0.00 0.00 79 4154.7
20260505055053 17 114 0.0 0.0 0.00 0.00 0.00 81 4154.7
20260505054551 17 113 0.0 0.0 0.00 0.00 0.00 82 4154.7
20260505054049 17 113 0.0 0.0 0.00 0.00 0.00 83 4154.8
20260505053545 17 113 0.0 0.0 0.00 0.00 0.00 83 4154.4
20260505053042 17 114 0.0 0.0 0.00 0.00 0.00 82 4154.9
20260505052539 17 114 0.0 0.0 0.00 0.00 0.00 82 4154.7
20260505052037 17 113 0.0 0.0 0.00 0.00 0.00 82 4154.7
20260505051533 17 112 0.0 0.0 0.00 0.00 0.00 81 4154.9
20260505051032 17 112 0.0 0.0 0.00 0.00 0.00 80 4154.6
20260505050529 17 112 0.0 0.0 0.00 0.00 0.00 80 4155.2
20260505041457 18 158 0.0 0.0 0.00 0.00 0.00 74 4155.4
20260505040954 19 157 0.0 0.0 0.00 0.00 0.00 73 4155.3
20260505040452 19 157 0.0 0.0 0.00 0.00 0.00 73 4155.3
20260505035949 19 158 0.0 0.0 0.00 0.00 0.00 72 4155.4
20260505035444 19 169 0.0 0.0 0.00 0.00 0.00 72 4155.3
20260505034942 19 156 1.6 1.6 0.00 0.00 0.00 72 4155.7
20260505034438 20 156 1.6 1.6 0.00 0.00 0.00 71 4155.5
20260505033936 20 155 0.0 1.6 0.00 0.00 0.00 71 4155.4
20260505033432 20 157 1.6 1.6 0.00 0.00 0.00 71 4155.7
20260505032930 20 159 1.6 1.6 0.00 0.00 0.00 70 4155.8
20260505032427 20 155 1.6 1.6 0.00 0.00 0.00 70 4155.7
20260505031924 20 155 1.6 1.6 0.00 0.00 0.00 70 4155.7
20260505031421 20 158 1.6 1.6 0.00 0.00 0.00 70 4155.7
20260505030918 20 156 0.0 1.6 0.00 0.00 0.00 70 4155.8
20260505030414 20 160 0.0 0.0 0.00 0.00 0.00 70 4155.9
20260505025909 20 160 0.0 0.0 0.00 0.00 0.00 70 4155.8
20260505025407 20 157 1.6 1.6 0.00 0.00 0.00 69 4155.5
20260505024906 20 159 1.6 1.6 0.00 0.00 0.00 69 4155.7
20260505024403 20 150 0.0 1.6 0.00 0.00 0.00 69 4155.4
20260505023859 20 151 0.0 1.6 0.00 0.00 0.00 68 4155.4
20260505023356 20 151 0.0 1.6 0.00 0.00 0.00 67 4155.4
20260505022853 20 163 0.0 0.0 0.00 0.00 0.00 68 4155.3
20260505022350 21 164 0.0 1.6 0.00 0.00 0.00 68 4155.1
20260505021848 21 163 0.0 0.0 0.00 0.00 0.00 67 4155.1
20260505021344 21 163 1.6 1.6 0.00 0.00 0.00 67 4155.0
20260505020840 21 161 1.6 1.6 0.00 0.00 0.00 66 4154.8
20260505020336 21 160 1.6 1.6 0.00 0.00 0.00 66 4154.7
20260505015833 21 163 0.0 1.6 0.00 0.00 0.00 66 4154.7
20260505015330 21 154 1.6 1.6 0.00 0.00 0.00 65 4154.7
20260505014827 22 147 1.6 1.6 0.00 0.00 0.00 64 4154.7
20260505014324 22 147 1.6 1.6 0.00 0.00 0.00 63 4154.7
20260505013821 22 144 1.6 1.6 0.00 0.00 0.00 63 4154.5
20260505013318 22 144 0.0 1.6 0.00 0.00 0.00 63 4154.4
20260505012816 22 144 0.0 1.6 0.00 0.00 0.00 62 4154.1
20260505012314 22 144 0.0 0.0 0.00 0.00 0.00 61 4154.1
20260505011809 22 144 0.0 0.0 0.00 0.00 0.00 61 4154.2
20260505011307 22 142 0.0 1.6 0.00 0.00 0.00 60 4154.1
20260505010802 23 139 0.0 1.6 0.00 0.00 0.00 59 4153.9
20260505010259 23 172 0.0 1.6 0.00 0.00 0.00 58 4153.8
20260505005755 23 157 0.0 1.6 0.00 0.00 0.00 58 4153.6
20260505005252 23 158 1.6 1.6 0.00 0.00 0.00 57 4153.6
20260505004749 23 161 1.6 1.6 0.00 0.00 0.00 57 4153.9
20260505004245 23 159 1.6 1.6 0.00 0.00 0.00 56 4153.7
20260505003743 24 152 1.6 1.6 0.00 0.00 0.00 56 4153.5
20260505003241 24 162 1.6 1.6 0.00 0.00 0.00 55 4153.5
20260505002736 24 148 0.0 0.0 0.00 0.00 0.00 55 4153.4
20260505002234 25 173 1.6 1.6 0.00 0.00 0.00 54 4153.6
20260505001731 25 174 0.0 0.0 0.00 0.00 0.00 54 4153.5
20260505001229 25 152 0.0 0.0 0.00 0.00 0.00 53 4153.7
20260505000725 25 98 1.6 1.6 0.00 0.00 0.00 52 4153.4
20260505000226 25 179 1.6 1.6 0.00 0.00 0.00 52 4153.4
20260504235720 25 160 1.6 1.6 0.00 0.00 0.00 52 4153.5
20260504235216 25 168 3.2 4.8 0.00 0.00 0.00 51 4153.3
20260504234713 25 143 4.8 4.8 0.00 0.00 0.00 51 4153.1
20260504234210 25 175 0.0 0.0 0.00 0.00 0.00 51 4153.5
20260504233706 25 191 3.2 3.2 0.00 0.00 0.00 51 4153.6
20260504233203 25 163 3.2 3.2 0.00 0.00 0.00 51 4153.4
20260504232700 26 183 1.6 1.6 0.00 0.00 0.00 51 4153.8
20260504232157 26 174 1.6 1.6 0.00 0.00 0.00 50 4153.8
20260504231653 26 186 6.4 11.3 0.00 0.00 0.00 49 4153.5
20260504231150 26 193 4.8 4.8 0.00 0.00 0.00 48 4153.7
20260504230646 26 222 8.0 11.3 0.00 0.00 0.00 48 4153.7
20260504230145 26 245 4.8 4.8 0.00 0.00 0.00 48 4154.0
20260504225643 26 210 4.8 8.0 0.00 0.00 0.00 47 4153.9
20260504225138 26 177 4.8 4.8 0.00 0.00 0.00 47 4153.6
20260504224636 26 202 6.4 9.7 0.00 0.00 0.00 47 4153.8
20260504224132 26 199 1.6 1.6 0.00 0.00 0.00 47 4153.8
20260504223630 26 178 1.6 1.6 0.00 0.00 0.00 46 4153.6
20260504223125 26 208 3.2 4.8 0.00 0.00 0.00 46 4153.8
20260504222622 26 198 6.4 8.0 0.00 0.00 0.00 45 4153.9
20260504222120 27 192 1.6 3.2 0.00 0.00 0.00 45 4153.9
20260504221616 27 195 8.0 11.3 0.00 0.00 0.00 43 4153.9
20260504221114 27 200 1.6 1.6 0.00 0.00 0.00 44 4154.0
20260504220610 27 196 8.0 11.3 0.00 0.00 0.00 44 4154.1
20260504220108 27 193 14.5 17.7 0.00 0.00 0.00 43 4153.9
20260504215604 27 173 1.6 3.2 0.00 0.00 0.00 44 4154.0
20260504215102 27 145 14.5 16.1 0.00 0.00 0.00 44 4154.0
20260504214557 27 190 3.2 3.2 0.00 0.00 0.00 44 4153.8
20260504214054 27 225 6.4 8.0 0.00 0.00 0.00 44 4154.0
20260504213550 27 216 6.4 8.0 0.00 0.00 0.00 44 4153.9
20260504213047 27 168 3.2 3.2 0.00 0.00 0.00 45 4154.0
20260504212543 27 187 11.3 12.9 0.00 0.00 0.00 44 4154.1
20260504212041 27 180 8.0 11.3 0.00 0.00 0.00 43 4154.0
20260504211537 27 225 6.4 8.0 0.00 0.00 0.00 44 4154.1
20260504211034 27 205 1.6 1.6 0.00 0.00 0.00 42 4154.0
20260504210531 27 150 4.8 9.7 0.00 0.00 0.00 43 4154.1
20260504210028 27 171 3.2 4.8 0.00 0.00 0.00 44 4154.3
20260504205526 27 192 4.8 9.7 0.00 0.00 0.00 43 4154.4
20260504205024 27 185 4.8 4.8 0.00 0.00 0.00 43 4154.3
20260504204521 27 160 3.2 3.2 0.00 0.00 0.00 44 4154.4
20260504204020 27 213 3.2 4.8 0.00 0.00 0.00 44 4154.6
20260504203518 27 184 3.2 3.2 0.00 0.00 0.00 43 4154.7
20260504203015 27 251 11.3 14.5 0.00 0.00 0.00 43 4154.5
20260504202510 27 140 16.1 22.5 0.00 0.00 0.00 44 4154.7
20260504202008 27 202 8.0 11.3 0.00 0.00 0.00 45 4154.7
20260504201505 27 195 9.7 11.3 0.00 0.00 0.00 44 4155.0
20260504201003 27 249 8.0 11.3 0.00 0.00 0.00 44 4154.9
20260504200458 27 204 6.4 9.7 0.00 0.00 0.00 45 4154.9
20260504195955 27 192 6.4 8.0 0.00 0.00 0.00 44 4154.9
20260504195451 27 207 9.7 14.5 0.00 0.00 0.00 45 4155.0
20260504194948 27 153 4.8 8.0 0.00 0.00 0.00 45 4155.0
20260504194444 27 212 8.0 9.7 0.00 0.00 0.00 45 4155.0
20260504193940 27 163 3.2 3.2 0.00 0.00 0.00 47 4155.2
20260504193437 27 176 11.3 16.1 0.00 0.00 0.00 46 4155.5
20260504192936 27 203 8.0 9.7 0.00 0.00 0.00 46 4155.2
20260504192433 26 210 4.8 8.0 0.00 0.00 0.00 46 4155.2
20260504191932 26 202 8.0 11.3 0.00 0.00 0.00 47 4155.4
20260504191429 26 193 9.7 11.3 0.00 0.00 0.00 46 4155.6
20260504190924 27 209 8.0 11.3 0.00 0.00 0.00 47 4155.5
20260504190420 27 212 4.8 4.8 0.00 0.00 0.00 46 4155.5
20260504185917 26 216 6.4 11.3 0.00 0.00 0.00 46 4155.4
20260504185414 27 202 12.9 20.9 0.00 0.00 0.00 46 4155.3
20260504184910 26 214 6.4 9.7 0.00 0.00 0.00 48 4155.6
20260504184406 26 209 6.4 8.0 0.00 0.00 0.00 47 4155.5
20260504183902 26 186 9.7 12.9 0.00 0.00 0.00 47 4155.6
20260504183400 26 208 4.8 4.8 0.00 0.00 0.00 47 4155.5
20260504182857 26 216 4.8 9.7 0.00 0.00 0.00 47 4155.7
20260504182354 26 189 6.4 8.0 0.00 0.00 0.00 48 4155.7
20260504181851 26 179 8.0 12.9 0.00 0.00 0.00 47 4155.6
20260504181348 26 155 8.0 11.3 0.00 0.00 0.00 46 4155.9
20260504180847 27 216 12.9 14.5 0.00 0.00 0.00 46 4155.8
20260504180345 27 245 6.4 9.7 0.00 0.00 0.00 46 4155.9
20260504175843 26 147 8.0 11.3 0.00 0.00 0.00 46 4155.8
20260504175339 26 232 1.6 3.2 0.00 0.00 0.00 48 4155.9
20260504174838 26 200 11.3 14.5 0.00 0.00 0.00 47 4156.0
20260504174335 26 187 4.8 8.0 0.00 0.00 0.00 47 4155.9
20260504173832 26 183 4.8 8.0 0.00 0.00 0.00 47 4156.2
20260504173328 25 199 12.9 14.5 0.00 0.00 0.00 47 4156.2
20260504172825 26 142 4.8 4.8 0.00 0.00 0.00 48 4156.2
20260504172322 25 173 8.0 11.3 0.00 0.00 0.00 47 4156.2
20260504171818 26 203 8.0 11.3 0.00 0.00 0.00 48 4156.5
20260504171315 25 224 11.3 12.9 0.00 0.00 0.00 47 4156.3
20260504170812 25 190 17.7 22.5 0.00 0.00 0.00 47 4156.4
20260504170309 25 205 12.9 16.1 0.00 0.00 0.00 47 4156.3
20260504160227 25 177 8.0 11.3 0.00 0.00 0.00 49 4156.9
20260504150653 22 183 6.4 8.0 0.00 0.00 0.00 51 4157.2
20260504150150 22 198 11.3 11.3 0.00 0.00 0.00 51 4157.6